Showing default

CARTOSAT 2C, 41599

Orbit data source: Space-Track

CARTOSAT 2C, 41599 is a payload satellite owned by ISRO (IN) in SSO that was launched on Wed, 22 Jun 2016 UTC via a PSLV-XL launch vehicle from the Sirharikota (SRI). Payload-class satellites include a variety of spacecraft equipped with specific instruments for various scientific and technological missions. These include communications satellites like Starlink; space stations such as the ISS; scientific satellites like the Hubble; Earth observation satellites from companies like Planet Labs, Umbra, and HawkEye 360; GPS; miniature CubeSats for education and research; and military/defense satellites.

Loading next visibility...
Identifier
41599, 2016-040A
Orbit
SSO
Country
Flag of ININ / IND
Related business
Manufacturer
ISRO
Mission
Operational Defense Imaging
Bus & Motor
IRS-2, AOCS
Mass
727 kg wet, ~600 kg dry
Launch date (UTC)
2016-06-22 (9 years ago)
Launch vehicle
PSLV-XL
Launch site
Sirharikota (SRI)
Object type
Payload
Rocket body
Debris
Shape & HBR
Hex Cyl + 2 Pan, 3.0 m
Radar Cross Section
8.699 m², Large (>1 m²)

Expand to show TLE details & history
Last TLE update: 13 hours ago

TLE from 13 hours ago
0 CARTOSAT 2C
1 41599U 16040A   25341.92282641  .00007098  00000-0  33972-3 0  9999
2 41599  97.4767  39.2226 0010944  79.7781 280.4687 15.19222929524672
Epoch: 2025-12-07T22:08Z
TLE epoch observation values (Epoch: 2025-12-07T22:08:52.201Z)
Latitude
-0.00006°
Longitude
-9.92415°
Altitude
509.913 km
Speed
7.61 km/s
True Right ascension
02h 36m 53s
True Declination
0° 00' 00"
Sunlit
Object was in full shadow at epoch
Visualization orbit readout
Latitude
Unknown
Longitude
Unknown
Altitude
Unknown
Speed
Unknown
Apparent Right ascension
Unknown
Apparent Declination
Unknown
Sunlit
N/A
Visualization observer readout
Local Sidereal Time
08:58:33
Azimuth
Unknown
Elevation
Unknown
Doppler factor
Unknown
Orbital elements
Apogee altitude
512.691 km
Perigee altitude
497.625 km
Semi-major axis
6,883.295 km
Eccentricity
0.00109
Inclination
97.4767°
RAAN
39.2226°
Arg. of periapsis
79.7781°
True anomaly
280.34535°
Mean anomaly
280.4687°
Eccentric anomaly
280.40703°
Mean motion
3.80057 °/min
Orbital period
94.72 mins
BSTAR
0.00033972
Loading maneuver chart data...
Computing Atmospheric mass density...

Documentation

Showing up to 5 results
|